Weather observations for the past three days for
Rogue Valley International Airport
Imperial (Metric)
Date Time (pdt) Wind (mph) Vis. (mi.) Weather Sky Cond. Temperature (ºF) Relative Humidity Wind Chill (°F) Heat Index (°F) Pressure Precipitation (in)
Air Dwpt 6 hour altimeter (in) sea level (mb) 1 hr 3 hr 6 hr
Max. Min.
16 08:53 N 3 10.00 Fair CLR 77 50 39% 78 29.97 1013.4
16 07:53 Calm 10.00 Fair CLR 71.1 50 47% 29.97 1013.6
16 06:53 Calm 10.00 Fair CLR 68 51.1 55% 29.97 1013.4
16 05:53 Calm 10.00 Fair CLR 64.9 51.1 61% 29.97 1013.4
16 04:53 S 3 10.00 Fair CLR 69.1 50 82.9 66.9 51% 29.95 1013.0
16 03:53 Calm 10.00 Fair CLR 68 51.1 55% 29.95 1012.7
16 02:53 Calm 10.00 Fair CLR 71.1 51.1 49% 29.95 1012.5
16 01:53 Calm 10.00 Fair CLR 72 52 50% 29.95 1012.5
16 00:53 Calm 10.00 Fair CLR 73 50 44% 29.95 1012.5
15 23:53 Calm 10.00 Fair CLR 77 52 42% 78 29.94 1012.5
15 22:53 SW 3 10.00 Fair CLR 82.9 52 97 79 34% 82 29.95 1012.5
15 21:53 S 6 10.00 Fair CLR 87.1 48.9 27% 84 29.95 1012.5
15 20:53 SW 7 10.00 Fair CLR 86 51.1 30% 84 29.95 1012.9
15 19:53 S 16 10.00 Fair CLR 90 48 24% 87 29.94 1012.5
15 18:53 SW 12 G 25 10.00 Fair CLR 91.9 46.9 21% 88 29.93 1012.1
15 17:53 S 21 G 33 10.00 Fair and Breezy CLR 93.9 43 17% 90 29.92 1011.8
15 16:53 S 16 G 26 10.00 Partly Cloudy SCT120 90 50 104 86 25% 87 29.96 1013.0
15 15:53 Vrbl 3 10.00 Fair CLR 102 48 16% 99 29.91 1011.1
15 14:53 W 8 10.00 Fair CLR 100 48 17% 97 29.94 1012.3
15 13:53 N 8 10.00 Fair CLR 99 48.9 18% 96 29.97 1013.2
15 12:53 Vrbl 5 10.00 Fair CLR 93.9 54 26% 92 30 1014.2
15 11:53 E 6 10.00 Fair CLR 90 54 29% 88 30.02 1015.1
15 10:53 N 5 10.00 Fair CLR 87.1 55.9 87.1 70 35% 86 30.04 1015.8
15 09:53 Calm 10.00 Fair CLR 82 55 40% 81 30.06 1016.4
15 08:53 Vrbl 3 10.00 Fair CLR 79 55 44% 80 30.07 1016.7
15 07:53 N 5 10.00 Fair CLR 75 54 48% 78 30.07 1016.7
15 06:53 Calm 10.00 Fair CLR 72 54 53% 30.06 1016.5
15 05:53 Calm 10.00 Fair CLR 71.1 54 55% 30.05 1016.1
15 04:53 W 5 10.00 Fair CLR 72 55 82 72 55% 30.04 1015.7
15 03:53 NW 3 10.00 Fair CLR 75 55 50% 78 30.03 1015.2
15 02:53 N 3 10.00 Fair CLR 75 55 50% 78 30.02 1014.9
15 01:53 N 6 10.00 Fair CLR 77 55 47% 78 30.02 1014.9
15 00:53 NW 5 10.00 Fair CLR 80.1 54 41% 80 30.02 1015.0
14 23:53 N 5 10.00 Fair CLR 81 52 37% 80 30.01 1014.8
14 22:53 NE 3 10.00 Fair CLR 82 52 100.9 82 35% 81 30.01 1014.6
14 21:53 NE 5 10.00 Fair CLR 84.9 51.1 31% 83 29.99 1014.2
14 20:53 N 9 10.00 Fair CLR 89.1 51.1 27% 86 29.97 1013.2
14 19:53 NW 13 10.00 Fair CLR 95 52 23% 92 29.95 1012.6
14 18:53 NW 7 10.00 Fair CLR 99 51.1 20% 96 29.94 1012.2
14 17:53 Vrbl 5 10.00 Fair CLR 99 51.1 20% 96 29.94 1012.4
14 16:53 W 6 10.00 Fair CLR 100 51.1 100.9 87.1 19% 97 29.95 1012.7
14 15:53 Vrbl 6 10.00 Fair CLR 97 51.1 21% 94 29.96 1013.0
14 14:53 Vrbl 6 10.00 Fair CLR 96.1 52 23% 93 29.98 1013.8
14 13:53 Vrbl 7 10.00 Fair CLR 93 51.1 24% 90 29.99 1014.1
14 12:53 Calm 10.00 Fair CLR 90 53.1 28% 88 30.01 1014.6
14 11:53 W 8 10.00 Fair CLR 89.1 54 30% 87 30.01 1014.8
14 10:53 W 6 10.00 Fair CLR 87.1 54 87.1 69.1 32% 85 30.02 1015.1
14 09:53 Calm 10.00 Fair CLR 82.9 53.1 36% 82 30.02 1015.1
14 08:53 Calm 10.00 Fair CLR 80.1 53.1 39% 80 30.03 1015.3
14 07:53 E 5 10.00 A Few Clouds FEW110 73.9 52 46% 30.02 1015.0
14 06:53 Calm 10.00 Fair CLR 72 52 50% 30.01 1014.5
14 05:53 Calm 10.00 Fair CLR 70 51.1 51% 29.98 1013.7
14 04:53 NE 5 10.00 Fair CLR 72 52 82.9 71.1 50% 29.98 1013.5
14 03:53 Calm 10.00 Fair CLR 73 50 44% 29.96 1013.0
14 02:53 Calm 10.00 Fair CLR 75 51.1 43% 78 29.96 1012.7
14 01:53 Calm 10.00 Fair CLR 75.9 53.1 45% 78 29.95 1012.6
14 00:53 Calm 10.00 Fair CLR 79 48 34% 79 29.95 1012.7
13 23:53 NE 6 10.00 Fair CLR 80.1 48.9 34% 79 29.94 1012.3
13 22:53 N 5 10.00 Fair CLR 82.9 52 105.1 82.9 34% 82 29.93 1012.0
13 21:53 N 6 10.00 Fair CLR 84.9 52 32% 83 29.91 1011.5
13 20:53 N 12 10.00 Fair CLR 91 55 30% 89 29.89 1010.6
13 19:53 N 10 10.00 Fair CLR 98.1 53.1 22% 96 29.86 1009.7
13 18:53 NW 7 10.00 Fair CLR 104 46.9 15% 100 29.85 1009.2
13 17:53 NW 13 10.00 Fair CLR 105.1 45 13% 101 29.85 1009.1
13 16:53 NW 14 10.00 Fair CLR 105.1 45 105.1 82 13% 101 29.86 1009.5
13 15:53 NW 7 10.00 Fair CLR 102.9 50 17% 100 29.88 1010.1
13 14:53 NW 3 10.00 Fair CLR 100 51.1 19% 97 29.89 1010.7
13 13:53 E 3 10.00 Fair CLR 95 51.1 23% 92 29.91 1011.3
13 12:53 W 5 10.00 Fair CLR 91 50 25% 88 29.93 1012.0
13 11:53 NW 5 10.00 Fair CLR 88 48 25% 85 29.94 1012.6
13 10:53 Vrbl 3 10.00 Fair CLR 82 46.9 82.9 63 29% 80 29.96 1013.1
13 09:53 Calm 10.00 Fair CLR 77 48 36% 78 29.97 1013.5
Date Time (pdt) Wind (mph) Vis. (mi.) Weather Sky Cond. Air Dwpt Max. Min. Relative Humidity Wind Chill (°F) Heat Index (°F) altimeter (in) sea level (mb) 1 hr 3 hr 6 hr
6 hour
Temperature (ºF) Pressure Precipitation (in)